Printer-friendly version
Follow the MPC on Twitter Follow the MPC on Facebook The MPC blog
Minor Planet Center

MPEC 2006-W57 : 2006 WY3

The following Minor Planet Electronic Circular may be linked-to from your own Web pages, but must not otherwise be redistributed electronically.

A form allowing access to any MPEC is at the bottom of this page.


Read MPEC 2006-W56 Read MPEC 2006-W58


M.P.E.C. 2006-W57                                Issued 2006 Nov. 22, 12:29 UT

     The Minor Planet Electronic Circulars contain information on unusual
         minor planets and routine data on comets.  They are published
   on behalf of Commission 20 of the International Astronomical Union by the
          Minor Planet Center, Smithsonian Astrophysical Observatory,
                          Cambridge, MA 02138, U.S.A.

             Prepared using the Tamkin Foundation Computer Network

                              MPC@CFA.HARVARD.EDU
          URL http://cfa-www.harvard.edu/iau/mpc.html  ISSN 1523-6714

                                   2006 WY3

Observations:
     K06W03Y* C2006 11 21.21735 03 32 30.78 +27 09 18.7          21.0 V EW057G96
     K06W03Y  C2006 11 21.22038 03 32 30.44 +27 09 16.8          21.8 V EW057G96
     K06W03Y  C2006 11 21.22346 03 32 30.18 +27 09 15.1          21.6 V EW057G96
     K06W03Y  C2006 11 21.28919 03 32 24.23 +27 08 39.0          21.5 V EW057G96
     K06W03Y  C2006 11 21.29008 03 32 24.16 +27 08 38.5          21.5 V EW057G96
     K06W03Y  C2006 11 21.29097 03 32 24.07 +27 08 37.9          21.8 V EW057G96
     K06W03Y  C2006 11 21.29185 03 32 23.99 +27 08 37.7          21.5 V EW057G96
     K06W03Y  C2006 11 21.37138 03 32 16.87 +27 07 51.3          21.6 V EW057G96
     K06W03Y  C2006 11 21.37556 03 32 16.47 +27 07 49.2          21.5 V EW057G96
     K06W03Y  C2006 11 21.37980 03 32 16.11 +27 07 46.4          21.3 V EW057G96
     K06W03Y  C2006 11 21.38398 03 32 15.79 +27 07 44.0          21.3 V EW057G96
     K06W03Y  C2006 11 22.17070 03 31 15.79 +27 00 21.0          21.5 R EW057734
     K06W03Y  C2006 11 22.18972 03 31 14.20 +27 00 11.5          21.6 R EW057734
     K06W03Y  C2006 11 22.20949 03 31 12.57 +27 00 01.1          22.1 R EW057734
     K06W03Y  C2006 11 22.20994 03 31 12.87 +27 00 02.8          21.4 V EW057G96
     K06W03Y  C2006 11 22.21359 03 31 12.55 +27 00 00.3          21.8 V EW057G96

Observer details:
734 Farpoint Observatory.  Observer G. Hug.  0.7-m reflector + CCD.
G96 Mt. Lemmon Survey.  Observer A. R. Gibbs.  Measurers E. C. Beshore,
    E. J. Christensen, G. J. Garradd, A. R. Gibbs, A. D. Grauer, R. E. Hill,
    R. A. Kowalski, S. M. Larson, R. H. McNaught.  1.5-m reflector + CCD.

Orbital elements:
2006 WY3                                                 Earth MOID = 0.0105 AU
Epoch 2006 Sept. 22.0 TT = JDT 2454000.5                MPC
M   6.38550              (2000.0)            P               Q
n   0.34325049     Peri.  332.03708     +0.89873525     +0.43848927
a   2.0202042      Node     1.95712     -0.39397330     +0.80893764
e   0.5516496      Incl.    2.43365     -0.19250970     +0.39159553
P   2.87           H   22.8           G   0.15           U   9
Residuals in seconds of arc
061121 G96  0.7+  0.0     061121 G96  0.2-  0.2+    061122 734  0.0   0.0
061121 G96  0.2-  0.2-    061121 G96  0.1+  0.0     061122 734  0.7+  0.3+
061121 G96  0.0   0.3-    061121 G96  0.3-  0.4+    061122 G96  0.2-  0.4+
061121 G96  0.2-  0.0     061121 G96  0.1-  0.1+    061122 G96  0.3-  0.2-
061121 G96  0.0   0.0     061121 G96  0.5+  0.2+
061121 G96  0.2-  0.1-    061122 734  0.3-  0.6-

Ephemeris:
2006 WY3                 a,e,i = 2.02, 0.55, 2                   q = 0.9058
Date    TT    R. A. (2000) Decl.     Delta      r     Elong.  Phase     V
2006 11 21    03 32.80   +27 11.4    0.346    1.331   172.1     5.8    21.6
2006 11 22    03 31.47   +27 02.0    0.354    1.339   171.9     5.9    21.6
2006 11 23    03 30.22   +26 52.9    0.363    1.347   171.5     6.2    21.7
2006 11 24    03 29.05   +26 43.9    0.371    1.355   171.0     6.6    21.8
2006 11 25    03 27.94   +26 35.1    0.380    1.363   170.3     7.0    21.9
2006 11 26    03 26.91   +26 26.5    0.389    1.371   169.5     7.6    22.0
2006 11 27    03 25.95   +26 18.1    0.398    1.379   168.6     8.1    22.1
2006 11 28    03 25.05   +26 10.0    0.407    1.387   167.7     8.7    22.2
2006 11 29    03 24.22   +26 02.0    0.417    1.395   166.7     9.4    22.2
2006 11 30    03 23.46   +25 54.3    0.426    1.403   165.7    10.0    22.3
2006 12 01    03 22.76   +25 46.9    0.436    1.411   164.7    10.6    22.4

Timothy B. Spahr             (C) Copyright 2006 MPC           M.P.E.C. 2006-W57

Read MPEC 2006-W56 Read MPEC 2006-W58


MPEC number:

Enter an MPEC number in one of the following forms:

  • 1997-B01 (the full form)
  • J97B01 (the packed version of the full form)
  • B01 (the abbreviated form)

Valid HTML 4.01!